| time (UTC) | temp F | wind direction | speed knots | gust knots | rain 1hr in | rain 24hr in | rain mn in | humidity % | barometer mb |
| 20260504202522 | 65 | 156 | 6.1 | 8.7 | 0.00 | 0.00 | 0.00 | 56 | 1009.6 |
| 20260504202019 | 65 | 146 | 7.0 | 12.2 | 0.00 | 0.00 | 0.00 | 56 | 1009.7 |
| 20260504201516 | 65 | 202 | 4.3 | 8.7 | 0.00 | 0.00 | 0.00 | 57 | 1009.8 |
| 20260504201014 | 65 | 192 | 5.2 | 7.0 | 0.00 | 0.00 | 0.00 | 56 | 1010.0 |
| 20260504200510 | 65 | 167 | 3.5 | 4.3 | 0.00 | 0.00 | 0.00 | 57 | 1009.7 |
| 20260504200006 | 64 | 252 | 6.1 | 9.6 | 0.00 | 0.00 | 0.00 | 57 | 1009.9 |
| 20260504195502 | 65 | 168 | 4.3 | 8.7 | 0.00 | 0.00 | 0.00 | 56 | 1009.6 |
| 20260504194954 | 65 | 192 | 5.2 | 7.0 | 0.00 | 0.00 | 0.00 | 56 | 1010.0 |
| 20260504194450 | 65 | 304 | 4.3 | 5.2 | 0.00 | 0.00 | 0.00 | 57 | 1009.8 |
| 20260504193946 | 65 | 190 | 5.2 | 11.3 | 0.00 | 0.00 | 0.00 | 56 | 1010.1 |
| 20260504193443 | 65 | 274 | 5.2 | 7.0 | 0.00 | 0.00 | 0.00 | 56 | 1010.0 |
| 20260504192942 | 65 | 207 | 8.7 | 11.3 | 0.00 | 0.00 | 0.00 | 56 | 1010.1 |
| 20260504192439 | 66 | 117 | 6.1 | 8.7 | 0.00 | 0.00 | 0.00 | 55 | 1010.0 |
| 20260504191938 | 66 | 330 | 4.3 | 7.8 | 0.00 | 0.00 | 0.00 | 55 | 1010.1 |
| 20260504191435 | 66 | 213 | 4.3 | 6.1 | 0.00 | 0.00 | 0.00 | 54 | 1010.2 |
| 20260504190936 | 66 | 190 | 12.2 | 13.0 | 0.00 | 0.00 | 0.00 | 53 | 1010.1 |
| 20260504190432 | 66 | 206 | 3.5 | 5.2 | 0.00 | 0.00 | 0.00 | 52 | 1010.1 |
| 20260504185928 | 67 | 177 | 5.2 | 7.0 | 0.00 | 0.00 | 0.00 | 51 | 1010.0 |
| 20260504185426 | 67 | 196 | 7.8 | 8.7 | 0.00 | 0.00 | 0.00 | 50 | 1010.3 |
| 20260504184921 | 67 | 181 | 4.3 | 6.1 | 0.00 | 0.00 | 0.00 | 51 | 1010.5 |
| 20260504184418 | 67 | 230 | 8.7 | 12.2 | 0.00 | 0.00 | 0.00 | 49 | 1010.5 |
| 20260504183914 | 67 | 215 | 5.2 | 6.1 | 0.00 | 0.00 | 0.00 | 50 | 1010.4 |
| 20260504183411 | 67 | 186 | 6.1 | 7.0 | 0.00 | 0.00 | 0.00 | 50 | 1010.3 |
| 20260504182909 | 68 | 241 | 3.5 | 4.3 | 0.00 | 0.00 | 0.00 | 51 | 1010.2 |
| 20260504182406 | 67 | 157 | 2.6 | 2.6 | 0.00 | 0.00 | 0.00 | 48 | 1010.3 |
| 20260504181902 | 67 | 322 | 5.2 | 7.0 | 0.00 | 0.00 | 0.00 | 48 | 1010.4 |
| 20260504181400 | 68 | 219 | 7.8 | 12.2 | 0.00 | 0.00 | 0.00 | 45 | 1010.4 |
| 20260504180859 | 68 | 140 | 3.5 | 6.1 | 0.00 | 0.00 | 0.00 | 47 | 1010.6 |
| 20260504180357 | 68 | 174 | 3.5 | 5.2 | 0.00 | 0.00 | 0.00 | 48 | 1010.5 |
| 20260504175855 | 68 | 177 | 3.5 | 5.2 | 0.00 | 0.00 | 0.00 | 50 | 1010.6 |
| 20260504175351 | 68 | 107 | 7.8 | 13.0 | 0.00 | 0.00 | 0.00 | 47 | 1010.5 |
| 20260504174849 | 68 | 339 | 2.6 | 4.3 | 0.00 | 0.00 | 0.00 | 48 | 1010.6 |
| 20260504174346 | 68 | 162 | 4.3 | 7.8 | 0.00 | 0.00 | 0.00 | 50 | 1010.5 |
| 20260504173843 | 67 | 180 | 8.7 | 12.2 | 0.00 | 0.00 | 0.00 | 48 | 1010.7 |
| 20260504173340 | 67 | 244 | 2.6 | 4.3 | 0.00 | 0.00 | 0.00 | 49 | 1010.8 |
| 20260504172837 | 67 | 230 | 5.2 | 9.6 | 0.00 | 0.00 | 0.00 | 48 | 1011.0 |
| 20260504172334 | 68 | 203 | 4.3 | 6.1 | 0.00 | 0.00 | 0.00 | 49 | 1010.9 |
| 20260504171829 | 68 | 268 | 3.5 | 4.3 | 0.00 | 0.00 | 0.00 | 48 | 1011.0 |
| 20260504171327 | 67 | 114 | 3.5 | 5.2 | 0.00 | 0.00 | 0.00 | 49 | 1010.7 |
| 20260504170824 | 66 | 243 | 4.3 | 5.2 | 0.00 | 0.00 | 0.00 | 47 | 1011.1 |
| 20260504170321 | 66 | 302 | 4.3 | 6.1 | 0.00 | 0.00 | 0.00 | 50 | 1011.0 |
| 20260504160239 | 65 | 322 | 3.5 | 5.2 | 0.00 | 0.00 | 0.00 | 45 | 1011.7 |
| 20260504150704 | 64 | 298 | 4.3 | 6.1 | 0.00 | 0.00 | 0.00 | 43 | 1012.6 |
| 20260504150201 | 65 | 199 | 7.0 | 8.7 | 0.00 | 0.00 | 0.00 | 43 | 1012.5 |
| 20260504141130 | 63 | 304 | 2.6 | 5.2 | 0.00 | 0.00 | 0.00 | 48 | 1012.6 |
| 20260504140627 | 63 | 300 | 3.5 | 5.2 | 0.00 | 0.00 | 0.00 | 48 | 1012.8 |
| 20260504140123 | 62 | 230 | 4.3 | 6.1 | 0.00 | 0.00 | 0.00 | 48 | 1012.6 |
| 20260504130551 | 59 | 257 | 1.7 | 2.6 | 0.00 | 0.00 | 0.00 | 57 | 1013.3 |
| 20260504110438 | 51 | 322 | 0.9 | 1.7 | 0.00 | 0.00 | 0.00 | 63 | 1013.4 |
| 20260504100355 | 49 | 239 | 4.3 | 5.2 | 0.00 | 0.00 | 0.00 | 63 | 1013.2 |
| 20260504081748 | 51 | 332 | 1.7 | 1.7 | 0.00 | 0.00 | 0.00 | 54 | 1012.9 |
| 20260504081245 | 51 | 275 | 2.6 | 2.6 | 0.00 | 0.00 | 0.00 | 53 | 1012.6 |
| 20260504080741 | 51 | 327 | 1.7 | 1.7 | 0.00 | 0.00 | 0.00 | 54 | 1012.8 |
| 20260504080238 | 51 | 335 | 0.9 | 0.9 | 0.00 | 0.00 | 0.00 | 54 | 1012.7 |
| 20260504070205 | 50 | 287 | 1.7 | 1.7 | 0.00 | 0.00 | 0.00 | 56 | 1012.3 |
| 20260504060126 | 50 | 297 | 1.7 | 1.7 | 0.00 | 0.00 | 0.00 | 57 | 1012.2 |
| 20260504050554 | 48 | 325 | 0.0 | 0.9 | 0.00 | 0.00 | 0.00 | 65 | 1012.0 |
| 20260504045548 | 47 | 343 | 0.9 | 0.9 | 0.00 | 0.00 | 0.00 | 68 | 1012.0 |
| 20260504045043 | 45 | 352 | 0.0 | 0.0 | 0.00 | 0.00 | 0.00 | 72 | 1012.0 |
| 20260504044541 | 44 | 352 | 0.0 | 0.0 | 0.00 | 0.00 | 0.00 | 74 | 1012.0 |
| 20260504044037 | 43 | 330 | 0.0 | 0.9 | 0.00 | 0.00 | 0.00 | 78 | 1011.9 |
| 20260504043534 | 42 | 357 | 0.0 | 0.0 | 0.00 | 0.00 | 0.00 | 77 | 1011.9 |
| 20260504043032 | 42 | 355 | 0.0 | 0.0 | 0.00 | 0.00 | 0.00 | 76 | 1011.8 |
| 20260504042529 | 43 | 355 | 0.0 | 0.0 | 0.00 | 0.00 | 0.00 | 76 | 1011.6 |
| 20260504042026 | 43 | 356 | 0.0 | 0.0 | 0.00 | 0.00 | 0.00 | 76 | 1012.0 |
| 20260504041521 | 43 | 356 | 0.0 | 0.0 | 0.00 | 0.00 | 0.00 | 76 | 1011.9 |
| 20260504041018 | 43 | 355 | 0.0 | 0.0 | 0.00 | 0.00 | 0.00 | 75 | 1012.0 |
| 20260504040515 | 43 | 355 | 0.0 | 0.0 | 0.00 | 0.00 | 0.00 | 75 | 1011.8 |
| 20260504040012 | 43 | 355 | 0.0 | 0.0 | 0.00 | 0.00 | 0.00 | 74 | 1011.9 |
| 20260504035509 | 43 | 355 | 0.0 | 0.0 | 0.00 | 0.00 | 0.00 | 74 | 1011.9 |
| 20260504035005 | 43 | 355 | 0.0 | 0.0 | 0.00 | 0.00 | 0.00 | 73 | 1012.0 |
| 20260504034503 | 44 | 355 | 0.0 | 0.0 | 0.00 | 0.00 | 0.00 | 73 | 1011.5 |
| 20260504034000 | 44 | 354 | 0.0 | 0.0 | 0.00 | 0.00 | 0.00 | 72 | 1011.8 |
| 20260504033457 | 44 | 354 | 0.0 | 0.0 | 0.00 | 0.00 | 0.00 | 72 | 1011.9 |
| 20260504032955 | 44 | 355 | 0.0 | 0.0 | 0.00 | 0.00 | 0.00 | 71 | 1011.7 |
| 20260504032451 | 44 | 356 | 0.0 | 0.0 | 0.00 | 0.00 | 0.00 | 71 | 1011.7 |
| 20260504031948 | 44 | 354 | 0.0 | 0.0 | 0.00 | 0.00 | 0.00 | 70 | 1011.7 |
| 20260504031445 | 44 | 354 | 0.0 | 0.0 | 0.00 | 0.00 | 0.00 | 71 | 1011.6 |
| 20260504030942 | 44 | 354 | 0.0 | 0.0 | 0.00 | 0.00 | 0.00 | 69 | 1011.7 |
| 20260504030439 | 45 | 354 | 0.0 | 0.0 | 0.00 | 0.00 | 0.00 | 69 | 1011.8 |
| 20260504025935 | 45 | 355 | 0.0 | 0.0 | 0.00 | 0.00 | 0.00 | 68 | 1011.7 |
| 20260504025432 | 45 | 352 | 0.0 | 0.0 | 0.00 | 0.00 | 0.00 | 68 | 1011.5 |
| 20260504024929 | 45 | 352 | 0.0 | 0.0 | 0.00 | 0.00 | 0.00 | 68 | 1011.6 |
| 20260504024426 | 45 | 354 | 0.0 | 0.0 | 0.00 | 0.00 | 0.00 | 66 | 1011.7 |
| 20260504023923 | 46 | 354 | 0.0 | 0.0 | 0.00 | 0.00 | 0.00 | 65 | 1011.8 |
| 20260504023419 | 46 | 354 | 0.0 | 0.0 | 0.00 | 0.00 | 0.00 | 66 | 1011.5 |
| 20260504022915 | 46 | 352 | 0.0 | 0.0 | 0.00 | 0.00 | 0.00 | 66 | 1011.7 |
| 20260504022412 | 46 | 352 | 0.0 | 0.0 | 0.00 | 0.00 | 0.00 | 64 | 1011.6 |
| 20260504021908 | 47 | 352 | 0.0 | 0.0 | 0.00 | 0.00 | 0.00 | 63 | 1011.7 |
| 20260504021406 | 47 | 352 | 0.0 | 0.0 | 0.00 | 0.00 | 0.00 | 61 | 1011.8 |
| 20260504020903 | 48 | 352 | 0.0 | 0.0 | 0.00 | 0.00 | 0.00 | 60 | 1011.7 |
| 20260504020359 | 48 | 352 | 0.0 | 0.0 | 0.00 | 0.00 | 0.00 | 61 | 1011.5 |
| 20260504015855 | 48 | 352 | 0.0 | 0.0 | 0.00 | 0.00 | 0.00 | 60 | 1011.7 |
| 20260504015351 | 48 | 352 | 0.0 | 0.0 | 0.00 | 0.00 | 0.00 | 59 | 1011.6 |
| 20260504014848 | 49 | 352 | 0.0 | 0.0 | 0.00 | 0.00 | 0.00 | 58 | 1011.5 |
| 20260504014343 | 49 | 352 | 0.0 | 0.0 | 0.00 | 0.00 | 0.00 | 56 | 1011.7 |
| 20260504013841 | 49 | 353 | 0.0 | 0.0 | 0.00 | 0.00 | 0.00 | 55 | 1011.5 |
| 20260504013339 | 49 | 352 | 0.0 | 0.0 | 0.00 | 0.00 | 0.00 | 55 | 1011.6 |
| 20260504012836 | 49 | 352 | 0.0 | 0.0 | 0.00 | 0.00 | 0.00 | 55 | 1011.5 |
| 20260504012334 | 49 | 352 | 0.0 | 0.0 | 0.00 | 0.00 | 0.00 | 55 | 1011.3 |
| 20260504011831 | 50 | 352 | 0.0 | 0.0 | 0.00 | 0.00 | 0.00 | 51 | 1011.1 |
| 20260504011327 | 50 | 352 | 0.0 | 0.0 | 0.00 | 0.00 | 0.00 | 52 | 1011.3 |
| 20260504010823 | 50 | 352 | 0.0 | 0.0 | 0.00 | 0.00 | 0.00 | 51 | 1011.1 |
| 20260504010319 | 50 | 352 | 0.0 | 0.0 | 0.00 | 0.00 | 0.00 | 50 | 1011.2 |
| 20260504005815 | 51 | 352 | 0.0 | 0.0 | 0.00 | 0.00 | 0.00 | 48 | 1011.1 |
| 20260504005313 | 52 | 352 | 0.0 | 0.0 | 0.00 | 0.00 | 0.00 | 46 | 1010.9 |
| 20260504004810 | 52 | 352 | 0.0 | 0.0 | 0.00 | 0.00 | 0.00 | 44 | 1010.9 |
| 20260504004308 | 52 | 351 | 0.0 | 0.0 | 0.00 | 0.00 | 0.00 | 45 | 1010.8 |
| 20260504003804 | 53 | 352 | 0.0 | 0.0 | 0.00 | 0.00 | 0.00 | 44 | 1010.9 |
| 20260504003301 | 53 | 351 | 0.0 | 0.0 | 0.00 | 0.00 | 0.00 | 43 | 1010.6 |
| 20260504002757 | 54 | 350 | 0.0 | 0.0 | 0.00 | 0.00 | 0.00 | 40 | 1010.7 |
| 20260504002254 | 54 | 350 | 0.0 | 0.0 | 0.00 | 0.00 | 0.00 | 40 | 1010.5 |
| 20260504001752 | 55 | 349 | 0.0 | 0.0 | 0.00 | 0.00 | 0.00 | 38 | 1010.6 |
| 20260504001249 | 55 | 348 | 0.9 | 0.9 | 0.00 | 0.00 | 0.00 | 37 | 1010.5 |
| 20260504000746 | 55 | 347 | 0.0 | 0.0 | 0.00 | 0.00 | 0.00 | 37 | 1010.3 |
| 20260504000243 | 56 | 314 | 0.9 | 0.9 | 0.00 | 0.00 | 0.00 | 36 | 1010.3 |
| 20260503235741 | 56 | 351 | 0.0 | 0.0 | 0.00 | 0.00 | 0.00 | 36 | 1010.3 |
| 20260503235237 | 56 | 346 | 0.9 | 0.9 | 0.00 | 0.00 | 0.00 | 35 | 1010.1 |
| 20260503234735 | 57 | 340 | 0.9 | 0.9 | 0.00 | 0.00 | 0.00 | 35 | 1010.1 |
| 20260503234233 | 57 | 317 | 1.7 | 1.7 | 0.00 | 0.00 | 0.00 | 34 | 1010.0 |
| 20260503233730 | 57 | 325 | 3.5 | 5.2 | 0.00 | 0.00 | 0.00 | 34 | 1010.0 |
| 20260503233225 | 57 | 323 | 2.6 | 2.6 | 0.00 | 0.00 | 0.00 | 34 | 1009.8 |
| 20260503232723 | 58 | 343 | 0.9 | 1.7 | 0.00 | 0.00 | 0.00 | 33 | 1010.0 |
| 20260503232220 | 58 | 314 | 1.7 | 1.7 | 0.00 | 0.00 | 0.00 | 33 | 1009.8 |
| 20260503231719 | 58 | 335 | 1.7 | 2.6 | 0.00 | 0.00 | 0.00 | 32 | 1009.8 |
| 20260503231215 | 59 | 311 | 2.6 | 4.3 | 0.00 | 0.00 | 0.00 | 31 | 1009.7 |
| 20260503230711 | 59 | 346 | 4.3 | 6.1 | 0.00 | 0.00 | 0.00 | 31 | 1009.8 |
| 20260503230208 | 59 | 340 | 2.6 | 2.6 | 0.00 | 0.00 | 0.00 | 32 | 1009.7 |
| 20260503225705 | 59 | 338 | 2.6 | 4.3 | 0.00 | 0.00 | 0.00 | 32 | 1009.4 |
| 20260503225159 | 59 | 340 | 1.7 | 1.7 | 0.00 | 0.00 | 0.00 | 31 | 1009.7 |
| 20260503224658 | 59 | 339 | 1.7 | 1.7 | 0.00 | 0.00 | 0.00 | 31 | 1009.7 |
| 20260503224155 | 59 | 341 | 4.3 | 5.2 | 0.00 | 0.00 | 0.00 | 30 | 1009.5 |
| 20260503223653 | 59 | 349 | 5.2 | 7.0 | 0.00 | 0.00 | 0.00 | 31 | 1009.6 |
| 20260503223149 | 59 | 327 | 5.2 | 6.1 | 0.00 | 0.00 | 0.00 | 30 | 1009.6 |
| 20260503222646 | 59 | 324 | 4.3 | 5.2 | 0.00 | 0.00 | 0.00 | 30 | 1009.5 |
| 20260503222144 | 59 | 327 | 7.0 | 9.6 | 0.00 | 0.00 | 0.00 | 30 | 1009.6 |
| 20260503221642 | 59 | 304 | 6.1 | 8.7 | 0.00 | 0.00 | 0.00 | 30 | 1009.5 |
| 20260503221139 | 60 | 339 | 7.8 | 11.3 | 0.00 | 0.00 | 0.00 | 30 | 1009.6 |
| 20260503220636 | 59 | 315 | 6.1 | 7.0 | 0.00 | 0.00 | 0.00 | 31 | 1009.6 |
| 20260503220132 | 59 | 346 | 7.8 | 8.7 | 0.00 | 0.00 | 0.00 | 30 | 1009.5 |
| 20260503215630 | 59 | 330 | 3.5 | 6.1 | 0.00 | 0.00 | 0.00 | 31 | 1009.5 |
| 20260503215126 | 59 | 347 | 7.0 | 8.7 | 0.00 | 0.00 | 0.00 | 31 | 1009.4 |
| 20260503214625 | 59 | 299 | 5.2 | 7.8 | 0.00 | 0.00 | 0.00 | 31 | 1009.4 |
| 20260503214121 | 59 | 255 | 9.6 | 13.0 | 0.00 | 0.00 | 0.00 | 31 | 1009.7 |
| 20260503213620 | 58 | 334 | 6.1 | 7.0 | 0.00 | 0.00 | 0.00 | 31 | 1009.3 |
| 20260503213116 | 59 | 284 | 4.3 | 7.0 | 0.00 | 0.00 | 0.00 | 32 | 1009.2 |
| 20260503212614 | 59 | 310 | 8.7 | 12.2 | 0.00 | 0.00 | 0.00 | 31 | 1009.3 |
| 20260503212111 | 59 | 312 | 6.1 | 8.7 | 0.00 | 0.00 | 0.00 | 32 | 1009.0 |
| 20260503211609 | 59 | 298 | 9.6 | 12.2 | 0.00 | 0.00 | 0.00 | 31 | 1009.0 |
| 20260503211103 | 59 | 305 | 5.2 | 7.0 | 0.00 | 0.00 | 0.00 | 33 | 1009.4 |
| 20260503210600 | 58 | 324 | 4.3 | 6.1 | 0.00 | 0.00 | 0.00 | 32 | 1009.2 |
| 20260503210056 | 58 | 291 | 4.3 | 7.0 | 0.00 | 0.00 | 0.00 | 33 | 1009.3 |
| 20260503205553 | 59 | 1 | 4.3 | 7.8 | 0.00 | 0.00 | 0.00 | 33 | 1009.1 |
| 20260503205049 | 58 | 324 | 7.0 | 8.7 | 0.00 | 0.00 | 0.00 | 33 | 1009.2 |
| 20260503204546 | 58 | 334 | 12.2 | 14.8 | 0.00 | 0.00 | 0.00 | 33 | 1009.4 |
| 20260503204043 | 58 | 315 | 7.0 | 8.7 | 0.00 | 0.00 | 0.00 | 33 | 1009.2 |
| 20260503203541 | 58 | 317 | 8.7 | 11.3 | 0.00 | 0.00 | 0.00 | 33 | 1009.2 |
| 20260503203037 | 58 | 346 | 4.3 | 6.1 | 0.00 | 0.00 | 0.00 | 33 | 1009.1 |